ARIANE 5 R/B (44335 NORAD) Tracking and Keplerian Element Data

This shows tracking and keplerian element data for the satellite.

Feedback or suggestion? Click here.




ElementValue
Catalog44335
NameARIANE 5 R/B
Epoch Orbit67
Epoch Day200.69081461
Epoch Year2019
RAAN51.5529
Inclination5.7447
Eccentricity0.7268914
Argument of Perigee199.283
Mean Anonmoly104.0491
Mean Motion2.30434599
Decay Rate1.165E-05
L11 44335U 19034C 19200.69081461 .00001165 00000-0 25070-3 0 9993
L22 44335 5.7447 51.5529 7268914 199.2830 104.0491 2.30434599 675

Live tracking and technical data element details for ARIANE 5 R/B (NORAD 44335). ARIANE 5 R/B can be tracked NOW for your location showing map with azimuth and elevation plus other details from your city location.

Track the satellite on the map from your city or location and see movement details for azimuth, elevation, latitude, longitude, range, height, and movement on the map or in text.







IsCatalogInMostPopularTable: catalog: 44335, numindb: 15
Update: records affected: 1



GetName: 44335 ARIANE 5 R/B

Hit Count: updated at: Wed, 23 Oct 2019 00:45:11 GMT